Time,TemperatureF,DewpointF,PressureIn,WindDirection,WindDirectionDegrees,WindSpeedMPH,WindSpeedGustMPH,Humidity,HourlyPrecipIn,Conditions,Clouds,dailyrainin,SoftwareType,DateUTC
2013-03-14 00:04:00,46.5,44.2,30.07,NE,45,0.0,0.0,92,0.00,,,0.00,WUHU216HW,2013-03-14 07:04:00,
2013-03-14 00:09:00,46.5,44.5,30.08,NE,45,0.0,0.0,93,0.00,,,0.00,WUHU216HW,2013-03-14 07:09:00,
2013-03-14 00:14:00,46.5,44.5,30.07,NW,315,0.0,0.0,93,0.00,,,0.00,WUHU216HW,2013-03-14 07:14:00,
2013-03-14 00:19:00,46.4,44.4,30.07,South,180,0.0,0.0,93,0.00,,,0.00,WUHU216HW,2013-03-14 07:19:00,
2013-03-14 00:24:00,46.5,44.5,30.07,SE,135,0.0,4.2,93,0.00,,,0.00,WUHU216HW,2013-03-14 07:24:00,
2013-03-14 00:29:00,46.4,44.4,30.07,SE,135,0.0,4.2,93,0.00,,,0.00,WUHU216HW,2013-03-14 07:29:00,
2013-03-14 00:34:00,46.2,44.2,30.07,South,180,0.0,0.0,93,0.00,,,0.00,WUHU216HW,2013-03-14 07:34:00,
2013-03-14 00:39:00,46.2,44.2,30.07,South,180,0.0,0.0,93,0.00,,,0.00,WUHU216HW,2013-03-14 07:39:00,
2013-03-14 00:44:00,46.2,44.2,30.07,South,180,0.0,0.0,93,0.00,,,0.00,WUHU216HW,2013-03-14 07:44:00,
2013-03-14 00:50:00,46.2,44.2,30.07,SSW,203,0.0,0.0,93,0.00,,,0.00,WUHU216HW,2013-03-14 07:50:00,
2013-03-14 00:55:00,46.0,44.0,30.07,South,180,0.0,0.0,93,0.00,,,0.00,WUHU216HW,2013-03-14 07:55:00,
2013-03-14 01:00:00,46.0,44.0,30.07,SSW,203,0.0,0.0,93,0.00,,,0.00,WUHU216HW,2013-03-14 08:00:00,
2013-03-14 01:05:00,46.0,44.0,30.06,South,180,0.0,0.0,93,0.00,,,0.00,WUHU216HW,2013-03-14 08:05:00,
2013-03-14 01:10:00,45.8,43.8,30.06,South,180,0.0,0.0,93,0.00,,,0.00,WUHU216HW,2013-03-14 08:10:00,
2013-03-14 01:15:00,45.8,43.8,30.06,South,180,0.0,0.0,93,0.00,,,0.00,WUHU216HW,2013-03-14 08:15:00,
2013-03-14 01:20:00,46.0,44.3,30.06,South,180,3.3,4.2,94,0.00,,,0.00,WUHU216HW,2013-03-14 08:20:00,
2013-03-14 01:25:00,46.2,44.5,30.06,NE,45,4.4,4.6,94,0.00,,,0.00,WUHU216HW,2013-03-14 08:25:00,
2013-03-14 01:30:00,46.2,44.2,30.06,SSE,158,1.6,4.6,93,0.00,,,0.00,WUHU216HW,2013-03-14 08:30:00,
2013-03-14 01:35:00,46.2,44.2,30.06,South,180,2.1,4.0,93,0.00,,,0.00,WUHU216HW,2013-03-14 08:35:00,
2013-03-14 01:40:00,46.2,44.2,30.06,SSW,203,6.1,6.4,93,0.00,,,0.00,WUHU216HW,2013-03-14 08:40:00,
2013-03-14 01:45:00,46.2,44.2,30.05,SSE,159,4.1,6.4,93,0.00,,,0.00,WUHU216HW,2013-03-14 08:45:00,
2013-03-14 01:50:00,46.2,44.2,30.06,SE,135,1.0,5.3,93,0.00,,,0.00,WUHU216HW,2013-03-14 08:50:00,
2013-03-14 01:55:00,46.4,44.4,30.05,ENE,68,2.8,5.3,93,0.00,,,0.00,WUHU216HW,2013-03-14 08:55:00,
2013-03-14 02:00:00,46.2,44.2,30.05,SW,225,0.0,3.1,93,0.00,,,0.00,WUHU216HW,2013-03-14 09:00:00,
2013-03-14 02:05:00,46.2,44.2,30.05,SSW,203,0.0,0.0,93,0.00,,,0.00,WUHU216HW,2013-03-14 09:05:00,
2013-03-14 02:10:00,46.0,44.0,30.05,NNW,338,0.0,0.0,93,0.00,,,0.00,WUHU216HW,2013-03-14 09:10:00,
2013-03-14 02:15:00,46.2,44.2,30.05,SSW,203,0.0,2.9,93,0.00,,,0.00,WUHU216HW,2013-03-14 09:15:00,
2013-03-14 02:20:00,46.2,44.2,30.05,South,180,0.0,2.9,93,0.00,,,0.00,WUHU216HW,2013-03-14 09:20:00,
2013-03-14 02:25:00,46.2,44.2,30.05,SSW,203,0.0,3.3,93,0.00,,,0.00,WUHU216HW,2013-03-14 09:25:00,
2013-03-14 02:30:00,46.2,44.2,30.04,SE,146,2.2,3.8,93,0.00,,,0.00,WUHU216HW,2013-03-14 09:30:00,
2013-03-14 02:35:00,46.2,44.2,30.04,WSW,248,0.0,3.8,93,0.00,,,0.00,WUHU216HW,2013-03-14 09:35:00,
2013-03-14 02:40:00,46.2,44.2,30.04,ESE,113,0.0,3.3,93,0.00,,,0.00,WUHU216HW,2013-03-14 09:40:00,
2013-03-14 02:45:00,46.4,44.4,30.04,WSW,245,3.8,7.3,93,0.00,,,0.00,WUHU216HW,2013-03-14 09:45:00,
2013-03-14 02:50:00,46.5,44.5,30.05,ENE,68,0.0,7.3,93,0.00,,,0.00,WUHU216HW,2013-03-14 09:50:00,
2013-03-14 02:55:00,46.5,44.5,30.05,SE,135,0.0,1.7,93,0.00,,,0.00,WUHU216HW,2013-03-14 09:55:00,
2013-03-14 03:00:00,46.5,44.5,30.05,SW,225,3.3,4.2,93,0.00,,,0.00,WUHU216HW,2013-03-14 10:00:00,
2013-03-14 03:05:00,46.5,44.2,30.05,West,270,0.0,4.2,92,0.00,,,0.00,WUHU216HW,2013-03-14 10:05:00,
2013-03-14 03:10:00,46.5,44.2,30.04,SE,135,0.0,0.0,92,0.00,,,0.00,WUHU216HW,2013-03-14 10:10:00,
2013-03-14 03:15:00,46.5,44.2,30.04,WSW,248,0.0,1.7,92,0.00,,,0.00,WUHU216HW,2013-03-14 10:15:00,
2013-03-14 03:20:00,46.5,44.2,30.04,SSW,203,0.0,2.0,92,0.00,,,0.00,WUHU216HW,2013-03-14 10:20:00,
2013-03-14 03:25:00,46.5,44.2,30.04,SE,135,0.0,2.0,92,0.00,,,0.00,WUHU216HW,2013-03-14 10:25:00,
2013-03-14 03:30:00,46.4,44.1,30.04,SSE,158,0.0,0.0,92,0.00,,,0.00,WUHU216HW,2013-03-14 10:30:00,
2013-03-14 03:35:00,46.5,44.2,30.04,SE,135,0.0,7.1,92,0.00,,,0.00,WUHU216HW,2013-03-14 10:35:00,
2013-03-14 03:40:00,46.5,44.2,30.03,SSE,158,0.0,7.1,92,0.00,,,0.00,WUHU216HW,2013-03-14 10:40:00,
2013-03-14 03:45:00,46.5,44.2,30.03,ESE,113,0.0,6.0,92,0.00,,,0.00,WUHU216HW,2013-03-14 10:45:00,
2013-03-14 03:50:00,46.5,44.2,30.03,SE,135,0.0,2.0,92,0.00,,,0.00,WUHU216HW,2013-03-14 10:50:00,
2013-03-14 03:55:00,46.4,44.1,30.03,SE,135,0.0,0.0,92,0.00,,,0.00,WUHU216HW,2013-03-14 10:55:00,
2013-03-14 04:00:00,46.5,44.2,30.03,ESE,113,0.0,1.3,92,0.00,,,0.00,WUHU216HW,2013-03-14 11:00:00,
2013-03-14 04:05:00,46.6,44.4,30.03,SSE,158,0.0,3.1,92,0.00,,,0.00,WUHU216HW,2013-03-14 11:05:00,
2013-03-14 04:10:00,46.6,44.4,30.03,South,180,1.9,3.1,92,0.00,,,0.00,WUHU216HW,2013-03-14 11:10:00,
2013-03-14 04:15:00,46.5,44.2,30.03,South,180,6.7,7.1,92,0.00,,,0.00,WUHU216HW,2013-03-14 11:15:00,
2013-03-14 04:20:00,46.5,44.2,30.02,South,180,0.0,7.1,92,0.00,,,0.00,WUHU216HW,2013-03-14 11:20:00,
2013-03-14 04:25:00,46.5,44.2,30.02,SW,225,0.0,3.5,92,0.00,,,0.00,WUHU216HW,2013-03-14 11:25:00,
2013-03-14 04:30:00,46.5,44.2,30.03,South,180,0.0,0.0,92,0.00,,,0.00,WUHU216HW,2013-03-14 11:30:00,
2013-03-14 04:35:00,46.5,44.2,30.03,SSE,158,0.0,3.5,92,0.00,,,0.00,WUHU216HW,2013-03-14 11:35:00,
2013-03-14 04:40:00,46.5,44.2,30.02,ESE,113,0.0,3.5,92,0.00,,,0.00,WUHU216HW,2013-03-14 11:40:00,
2013-03-14 04:45:00,46.4,44.1,30.02,ESE,113,0.0,0.0,92,0.00,,,0.00,WUHU216HW,2013-03-14 11:45:00,
2013-03-14 04:50:00,46.4,44.4,30.02,SSW,203,4.8,5.1,93,0.00,,,0.00,WUHU216HW,2013-03-14 11:50:00,
2013-03-14 04:56:00,46.4,44.4,30.02,South,180,0.0,5.1,93,0.00,,,0.00,WUHU216HW,2013-03-14 11:56:00,
2013-03-14 05:01:00,46.4,44.4,30.01,South,180,0.0,0.0,93,0.00,,,0.00,WUHU216HW,2013-03-14 12:01:00,
2013-03-14 05:06:00,46.4,44.4,30.02,ESE,113,0.0,0.0,93,0.00,,,0.00,WUHU216HW,2013-03-14 12:06:00,
2013-03-14 05:11:00,46.5,44.5,30.02,South,180,0.0,7.8,93,0.00,,,0.00,WUHU216HW,2013-03-14 12:11:00,
2013-03-14 05:16:00,46.5,44.5,30.02,South,180,0.0,7.8,93,0.00,,,0.00,WUHU216HW,2013-03-14 12:16:00,
2013-03-14 05:21:00,46.5,44.2,30.02,SSE,158,0.0,0.0,92,0.00,,,0.00,WUHU216HW,2013-03-14 12:21:00,
2013-03-14 05:26:00,46.5,44.2,30.02,SSE,158,0.0,0.0,92,0.00,,,0.00,WUHU216HW,2013-03-14 12:26:00,
2013-03-14 05:31:00,46.5,44.2,30.02,SSE,158,0.0,0.0,92,0.00,,,0.00,WUHU216HW,2013-03-14 12:31:00,
2013-03-14 05:36:00,46.5,44.2,30.03,ESE,113,0.0,0.0,92,0.00,,,0.00,WUHU216HW,2013-03-14 12:36:00,
2013-03-14 05:41:00,46.4,44.1,30.03,SE,135,5.0,5.3,92,0.00,,,0.00,WUHU216HW,2013-03-14 12:41:00,
2013-03-14 05:46:00,46.4,44.1,30.03,SE,135,0.0,5.3,92,0.00,,,0.00,WUHU216HW,2013-03-14 12:46:00,
2013-03-14 05:51:00,46.4,44.1,30.02,ENE,68,0.0,0.0,92,0.00,,,0.00,WUHU216HW,2013-03-14 12:51:00,
2013-03-14 05:56:00,46.4,44.4,30.02,ENE,68,0.0,0.0,93,0.00,,,0.00,WUHU216HW,2013-03-14 12:56:00,
2013-03-14 06:01:00,46.4,44.4,30.02,SE,135,0.0,0.0,93,0.00,,,0.00,WUHU216HW,2013-03-14 13:01:00,
2013-03-14 06:06:00,46.2,44.2,30.02,ENE,68,0.0,0.0,93,0.00,,,0.00,WUHU216HW,2013-03-14 13:06:00,
2013-03-14 06:11:00,46.2,44.2,30.02,SSE,158,0.0,0.0,93,0.00,,,0.00,WUHU216HW,2013-03-14 13:11:00,
2013-03-14 06:16:00,46.0,44.0,30.02,ESE,113,0.0,0.0,93,0.00,,,0.00,WUHU216HW,2013-03-14 13:16:00,
2013-03-14 06:21:00,46.0,44.0,30.01,NNE,23,0.0,0.0,93,0.00,,,0.00,WUHU216HW,2013-03-14 13:21:00,
2013-03-14 06:27:00,45.8,43.8,30.01,South,180,0.0,0.0,93,0.00,,,0.00,WUHU216HW,2013-03-14 13:27:00,
2013-03-14 06:32:00,45.8,43.8,30.01,South,180,0.0,0.0,93,0.00,,,0.00,WUHU216HW,2013-03-14 13:32:00,
2013-03-14 06:37:00,45.8,43.8,30.02,East,90,0.0,0.0,93,0.00,,,0.00,WUHU216HW,2013-03-14 13:37:00,
2013-03-14 06:42:00,46.0,44.0,30.02,South,180,0.0,0.0,93,0.00,,,0.00,WUHU216HW,2013-03-14 13:42:00,
2013-03-14 06:47:00,46.0,44.0,30.03,South,180,0.0,0.0,93,0.00,,,0.00,WUHU216HW,2013-03-14 13:47:00,
2013-03-14 06:52:00,46.0,44.0,30.02,NE,45,0.0,0.0,93,0.00,,,0.00,WUHU216HW,2013-03-14 13:52:00,
2013-03-14 06:57:00,46.0,44.0,30.03,SSE,158,0.0,4.6,93,0.00,,,0.00,WUHU216HW,2013-03-14 13:57:00,
2013-03-14 07:02:00,46.0,43.7,30.03,SSE,158,0.0,4.6,92,0.00,,,0.00,WUHU216HW,2013-03-14 14:02:00,
2013-03-14 07:07:00,46.0,43.7,30.02,SE,135,0.0,0.0,92,0.00,,,0.00,WUHU216HW,2013-03-14 14:07:00,
2013-03-14 07:12:00,46.0,43.7,30.02,SE,135,0.0,0.0,92,0.00,,,0.00,WUHU216HW,2013-03-14 14:12:00,
2013-03-14 07:17:00,46.0,43.7,30.02,NNW,338,0.0,0.0,92,0.00,,,0.00,WUHU216HW,2013-03-14 14:17:00,
2013-03-14 07:22:00,45.8,43.5,30.02,SSE,158,0.0,0.0,92,0.00,,,0.00,WUHU216HW,2013-03-14 14:22:00,
2013-03-14 07:27:00,45.6,43.3,30.02,SW,225,0.0,0.0,92,0.00,,,0.00,WUHU216HW,2013-03-14 14:27:00,
2013-03-14 07:32:00,45.6,43.3,30.02,South,180,0.0,0.0,92,0.00,,,0.00,WUHU216HW,2013-03-14 14:32:00,
2013-03-14 07:37:00,45.8,43.5,30.02,South,180,0.0,6.0,92,0.00,,,0.00,WUHU216HW,2013-03-14 14:37:00,
2013-03-14 07:42:00,45.6,43.3,30.02,ESE,113,4.8,6.0,92,0.00,,,0.00,WUHU216HW,2013-03-14 14:42:00,
2013-03-14 07:47:00,45.6,43.1,30.02,SSE,158,3.8,5.1,91,0.00,,,0.00,WUHU216HW,2013-03-14 14:47:00,
2013-03-14 07:52:00,45.6,43.1,30.02,ESE,113,0.0,4.0,91,0.00,,,0.00,WUHU216HW,2013-03-14 14:52:00,
2013-03-14 07:57:00,45.6,43.1,30.02,SE,135,0.0,0.0,91,0.00,,,0.00,WUHU216HW,2013-03-14 14:57:00,
2013-03-14 08:02:00,45.6,43.1,30.02,NNE,23,3.3,3.5,91,0.00,,,0.00,WUHU216HW,2013-03-14 15:02:00,
2013-03-14 08:07:00,46.0,43.2,30.02,SSW,203,0.0,3.5,90,0.00,,,0.00,WUHU216HW,2013-03-14 15:07:00,
2013-03-14 08:12:00,46.0,42.9,30.03,SE,135,0.0,6.7,89,0.00,,,0.00,WUHU216HW,2013-03-14 15:12:00,
2013-03-14 08:17:00,46.0,43.2,30.03,SSE,158,0.0,6.7,90,0.00,,,0.00,WUHU216HW,2013-03-14 15:17:00,
2013-03-14 08:22:00,46.0,43.2,30.03,East,90,0.0,0.0,90,0.00,,,0.00,WUHU216HW,2013-03-14 15:22:00,
2013-03-14 08:27:00,46.0,43.2,30.03,SSE,158,4.0,4.2,90,0.00,,,0.00,WUHU216HW,2013-03-14 15:27:00,
2013-03-14 08:32:00,46.2,43.1,30.04,SSE,158,6.9,7.3,89,0.00,,,0.00,WUHU216HW,2013-03-14 15:32:00,
2013-03-14 08:37:00,46.2,43.1,30.04,SSE,158,0.0,7.3,89,0.00,,,0.00,WUHU216HW,2013-03-14 15:37:00,
2013-03-14 08:42:00,46.4,43.3,30.04,SSE,158,0.0,5.3,89,0.00,,,0.00,WUHU216HW,2013-03-14 15:42:00,
2013-03-14 08:47:00,46.5,43.3,30.04,ESE,113,0.0,0.0,89,0.00,,,0.00,WUHU216HW,2013-03-14 15:47:00,
2013-03-14 08:52:00,46.5,43.3,30.04,South,180,6.6,6.9,89,0.00,,,0.00,WUHU216HW,2013-03-14 15:52:00,
2013-03-14 08:57:00,46.6,43.3,30.03,SW,225,0.0,6.9,88,0.00,,,0.00,WUHU216HW,2013-03-14 15:57:00,
2013-03-14 09:02:00,46.8,43.4,30.04,SSE,158,0.0,0.0,88,0.00,,,0.00,WUHU216HW,2013-03-14 16:02:00,
2013-03-14 09:07:00,47.0,43.6,30.04,ESE,113,0.0,0.0,88,0.00,,,0.00,WUHU216HW,2013-03-14 16:07:00,
2013-03-14 09:12:00,47.2,43.8,30.04,South,180,6.1,6.4,88,0.00,,,0.00,WUHU216HW,2013-03-14 16:12:00,
2013-03-14 09:17:00,47.3,43.9,30.05,SE,135,0.0,6.4,88,0.00,,,0.00,WUHU216HW,2013-03-14 16:17:00,
2013-03-14 09:22:00,47.3,43.9,30.05,SE,135,1.0,5.3,88,0.00,,,0.00,WUHU216HW,2013-03-14 16:22:00,
2013-03-14 09:27:00,47.7,44.0,30.04,SSW,203,0.0,5.3,87,0.00,,,0.00,WUHU216HW,2013-03-14 16:27:00,
2013-03-14 09:32:00,47.7,44.0,30.05,South,180,3.8,4.4,87,0.00,,,0.00,WUHU216HW,2013-03-14 16:32:00,
2013-03-14 09:37:00,48.1,44.4,30.05,SSW,203,0.0,4.2,87,0.00,,,0.00,WUHU216HW,2013-03-14 16:37:00,
2013-03-14 09:42:00,48.2,44.5,30.05,SSE,158,0.0,6.4,87,0.00,,,0.00,WUHU216HW,2013-03-14 16:42:00,
2013-03-14 09:47:00,48.6,44.6,30.05,SSE,158,3.1,6.4,86,0.00,,,0.00,WUHU216HW,2013-03-14 16:47:00,
2013-03-14 09:53:00,48.8,44.7,30.05,SE,135,0.0,5.8,86,0.00,,,0.00,WUHU216HW,2013-03-14 16:53:00,
2013-03-14 09:58:00,48.7,44.4,30.05,South,180,0.0,7.8,85,0.00,,,0.00,WUHU216HW,2013-03-14 16:58:00,
2013-03-14 10:03:00,49.0,44.7,30.05,SSE,158,0.0,7.8,85,0.00,,,0.00,WUHU216HW,2013-03-14 17:03:00,
2013-03-14 10:08:00,48.7,43.8,30.05,SSE,158,7.6,8.0,83,0.00,,,0.00,WUHU216HW,2013-03-14 17:08:00,
2013-03-14 10:13:00,48.6,44.0,30.05,SSE,158,5.7,8.0,84,0.00,,,0.00,WUHU216HW,2013-03-14 17:13:00,
2013-03-14 10:18:00,48.9,44.3,30.05,SE,135,4.4,6.0,84,0.00,,,0.00,WUHU216HW,2013-03-14 17:18:00,
2013-03-14 10:23:00,48.9,44.0,30.05,SSE,158,0.0,6.9,83,0.00,,,0.00,WUHU216HW,2013-03-14 17:23:00,
2013-03-14 10:28:00,48.9,43.9,30.05,ESE,113,0.0,6.9,83,0.00,,,0.00,WUHU216HW,2013-03-14 17:28:00,
2013-03-14 10:33:00,49.0,44.1,30.05,SE,135,0.0,2.4,83,0.00,,,0.00,WUHU216HW,2013-03-14 17:33:00,
2013-03-14 10:38:00,48.8,43.9,30.05,SSE,158,4.2,4.4,83,0.00,,,0.00,WUHU216HW,2013-03-14 17:38:00,
2013-03-14 10:43:00,49.0,44.1,30.05,SSW,203,6.7,7.1,83,0.00,,,0.00,WUHU216HW,2013-03-14 17:43:00,
2013-03-14 10:48:00,48.8,43.5,30.05,South,180,6.7,7.1,82,0.00,,,0.00,WUHU216HW,2013-03-14 17:48:00,
2013-03-14 10:53:00,48.9,43.7,30.05,SSE,158,0.0,7.1,82,0.00,,,0.00,WUHU216HW,2013-03-14 17:53:00,
2013-03-14 10:58:00,48.9,43.7,30.05,SE,135,0.0,4.9,82,0.00,,,0.00,WUHU216HW,2013-03-14 17:58:00,
2013-03-14 11:03:00,48.9,43.7,30.05,SSE,158,0.0,4.2,82,0.00,,,0.00,WUHU216HW,2013-03-14 18:03:00,
2013-03-14 11:08:00,49.1,43.8,30.06,SE,135,1.2,8.0,82,0.00,,,0.00,WUHU216HW,2013-03-14 18:08:00,
2013-03-14 11:13:00,49.2,44.0,30.06,SSE,158,6.4,8.7,82,0.00,,,0.00,WUHU216HW,2013-03-14 18:13:00,
2013-03-14 11:18:00,49.2,44.0,30.06,SSE,158,0.0,9.3,82,0.00,,,0.00,WUHU216HW,2013-03-14 18:18:00,
2013-03-14 11:23:00,49.5,44.2,30.05,SSE,158,0.0,9.3,82,0.00,,,0.00,WUHU216HW,2013-03-14 18:23:00,
2013-03-14 11:28:00,49.7,44.1,30.05,SSE,158,6.4,6.7,81,0.00,,,0.00,WUHU216HW,2013-03-14 18:28:00,
2013-03-14 11:33:00,49.4,43.9,30.06,SE,135,8.1,8.5,81,0.00,,,0.00,WUHU216HW,2013-03-14 18:33:00,
2013-03-14 11:38:00,49.8,44.2,30.05,SSE,159,2.4,8.5,81,0.00,,,0.00,WUHU216HW,2013-03-14 18:38:00,
2013-03-14 11:43:00,49.8,44.2,30.05,South,169,4.1,7.1,81,0.00,,,0.00,WUHU216HW,2013-03-14 18:43:00,
2013-03-14 11:48:00,50.0,44.1,30.05,SSE,158,5.9,7.1,80,0.00,,,0.00,WUHU216HW,2013-03-14 18:48:00,
2013-03-14 11:53:00,50.1,44.6,30.05,ESE,113,0.6,6.2,81,0.00,,,0.00,WUHU216HW,2013-03-14 18:53:00,
2013-03-14 11:59:00,50.2,44.0,30.05,SE,135,0.0,2.9,79,0.00,,,0.00,WUHU216HW,2013-03-14 18:59:00,
2013-03-14 12:04:00,50.4,44.2,30.05,SSE,158,0.0,2.9,79,0.00,,,0.00,WUHU216HW,2013-03-14 19:04:00,
2013-03-14 12:09:00,50.6,44.3,30.05,SE,135,0.0,1.5,79,0.00,,,0.00,WUHU216HW,2013-03-14 19:09:00,
2013-03-14 12:14:00,50.5,44.0,30.05,SSW,203,5.5,5.8,78,0.00,,,0.00,WUHU216HW,2013-03-14 19:14:00,
2013-03-14 12:19:00,50.5,43.3,30.05,SSE,158,4.2,11.4,76,0.00,,,0.00,WUHU216HW,2013-03-14 19:19:00,
2013-03-14 12:24:00,50.5,43.6,30.05,SE,135,0.0,11.4,77,0.00,,,0.00,WUHU216HW,2013-03-14 19:24:00,
2013-03-14 12:29:00,50.7,44.1,30.05,NNW,338,0.0,6.9,78,0.00,,,0.00,WUHU216HW,2013-03-14 19:29:00,
2013-03-14 12:34:00,50.7,43.5,30.05,South,178,5.3,6.9,76,0.00,,,0.00,WUHU216HW,2013-03-14 19:34:00,
2013-03-14 12:39:00,50.3,43.1,30.05,South,180,0.0,7.1,76,0.00,,,0.00,WUHU216HW,2013-03-14 19:39:00,
2013-03-14 12:44:00,50.2,43.0,30.05,SSE,158,6.9,8.9,76,0.00,,,0.00,WUHU216HW,2013-03-14 19:44:00,
2013-03-14 12:49:00,50.4,43.5,30.05,South,180,7.8,8.9,77,0.00,,,0.00,WUHU216HW,2013-03-14 19:49:00,
2013-03-14 12:54:00,50.2,43.3,30.05,SSE,158,5.7,8.2,77,0.00,,,0.00,WUHU216HW,2013-03-14 19:54:00,
2013-03-14 12:59:00,50.2,43.3,30.05,SE,135,6.9,7.3,77,0.00,,,0.00,WUHU216HW,2013-03-14 19:59:00,
2013-03-14 13:04:00,49.7,43.8,30.06,SSE,158,0.0,7.3,80,0.00,,,0.00,WUHU216HW,2013-03-14 20:04:00,
2013-03-14 13:09:00,49.5,43.9,30.05,East,90,0.0,1.1,81,0.00,,,0.00,WUHU216HW,2013-03-14 20:09:00,
2013-03-14 13:14:00,49.5,44.2,30.05,South,180,0.0,0.0,82,0.00,,,0.00,WUHU216HW,2013-03-14 20:14:00,
2013-03-14 13:19:00,49.3,44.0,30.05,SSE,155,3.1,5.8,82,0.00,,,0.00,WUHU216HW,2013-03-14 20:19:00,
2013-03-14 13:24:00,49.1,43.8,30.05,South,180,7.6,8.0,82,0.00,,,0.00,WUHU216HW,2013-03-14 20:24:00,
2013-03-14 13:29:00,49.1,44.1,30.05,South,180,6.5,8.0,83,0.00,,,0.00,WUHU216HW,2013-03-14 20:29:00,
2013-03-14 13:34:00,49.0,44.1,30.05,South,180,5.2,7.6,83,0.00,,,0.00,WUHU216HW,2013-03-14 20:34:00,
2013-03-14 13:39:00,49.0,44.1,30.05,SE,135,0.0,6.0,83,0.00,,,0.00,WUHU216HW,2013-03-14 20:39:00,
2013-03-14 13:44:00,49.2,44.0,30.05,SE,143,5.0,13.1,82,0.00,,,0.00,WUHU216HW,2013-03-14 20:44:00,
2013-03-14 13:49:00,49.0,43.8,30.04,SSW,203,0.0,13.1,82,0.00,,,0.00,WUHU216HW,2013-03-14 20:49:00,
2013-03-14 13:54:00,49.4,44.5,30.05,South,180,6.1,9.1,83,0.00,,,0.00,WUHU216HW,2013-03-14 20:54:00,
2013-03-14 13:59:00,49.6,44.3,30.05,SSE,165,6.0,9.1,82,0.00,,,0.00,WUHU216HW,2013-03-14 20:59:00,
2013-03-14 14:04:00,49.9,44.6,30.04,East,90,0.0,8.5,82,0.00,,,0.00,WUHU216HW,2013-03-14 21:04:00,
2013-03-14 14:09:00,50.5,44.9,30.05,SE,146,6.7,8.0,81,0.00,,,0.00,WUHU216HW,2013-03-14 21:09:00,
2013-03-14 14:14:00,51.1,44.9,30.04,South,180,13.3,14.0,79,0.00,,,0.00,WUHU216HW,2013-03-14 21:14:00,
2013-03-14 14:19:00,51.6,45.1,30.04,South,189,10.6,17.8,78,0.00,,,0.00,WUHU216HW,2013-03-14 21:19:00,
2013-03-14 14:24:00,52.0,45.4,30.04,South,180,11.2,17.8,78,0.00,,,0.00,WUHU216HW,2013-03-14 21:24:00,
2013-03-14 14:29:00,53.1,45.5,30.04,SSE,167,8.2,12.0,75,0.00,,,0.00,WUHU216HW,2013-03-14 21:29:00,
2013-03-14 14:34:00,53.4,45.1,30.04,SSW,203,5.0,12.0,73,0.00,,,0.00,WUHU216HW,2013-03-14 21:34:00,
2013-03-14 14:39:00,53.8,45.4,30.03,SSE,158,3.6,8.0,73,0.00,,,0.00,WUHU216HW,2013-03-14 21:39:00,
2013-03-14 14:44:00,54.9,46.1,30.04,SE,135,4.4,8.0,72,0.00,,,0.00,WUHU216HW,2013-03-14 21:44:00,
2013-03-14 14:49:00,54.5,45.0,30.03,South,180,0.0,7.6,70,0.00,,,0.00,WUHU216HW,2013-03-14 21:49:00,
2013-03-14 14:54:00,53.8,45.1,30.03,NE,45,6.9,7.6,72,0.00,,,0.00,WUHU216HW,2013-03-14 21:54:00,
2013-03-14 14:59:00,54.0,44.5,30.03,South,172,10.4,14.0,70,0.00,,,0.00,WUHU216HW,2013-03-14 21:59:00,
2013-03-14 15:04:00,53.3,43.1,30.03,SSW,203,10.8,14.0,68,0.00,,,0.00,WUHU216HW,2013-03-14 22:04:00,
2013-03-14 15:09:00,53.1,42.9,30.03,South,180,6.6,11.4,68,0.00,,,0.00,WUHU216HW,2013-03-14 22:09:00,
2013-03-14 15:15:00,52.5,41.6,30.03,SSE,151,6.9,10.5,66,0.00,,,0.00,WUHU216HW,2013-03-14 22:15:00,
2013-03-14 15:20:00,52.5,40.4,30.03,South,180,11.5,14.0,63,0.00,,,0.00,WUHU216HW,2013-03-14 22:20:00,
2013-03-14 15:24:00,52.5,41.2,30.03,SSE,158,10.0,17.8,65,0.00,,,0.00,WUHU216HW,2013-03-14 22:24:00,
2013-03-14 15:30:00,52.7,41.0,30.03,South,180,15.3,17.8,64,0.00,,,0.00,WUHU216HW,2013-03-14 22:30:00,
2013-03-14 15:35:00,52.5,40.0,30.02,South,173,7.0,16.1,62,0.00,,,0.00,WUHU216HW,2013-03-14 22:35:00,
2013-03-14 15:40:00,52.3,40.6,30.03,South,169,6.0,14.3,64,0.00,,,0.00,WUHU216HW,2013-03-14 22:40:00,
2013-03-14 15:45:00,52.1,40.4,30.03,SSW,203,14.8,15.6,64,0.00,,,0.00,WUHU216HW,2013-03-14 22:45:00,
2013-03-14 15:50:00,51.6,40.3,30.02,SE,135,11.4,17.2,65,0.00,,,0.00,WUHU216HW,2013-03-14 22:50:00,
2013-03-14 15:55:00,51.4,40.5,30.02,SSE,158,21.9,23.0,66,0.00,,,0.00,WUHU216HW,2013-03-14 22:55:00,
2013-03-14 16:00:00,51.2,40.4,30.02,SE,135,8.7,23.0,66,0.00,,,0.00,WUHU216HW,2013-03-14 23:00:00,
2013-03-14 16:05:00,50.8,40.4,30.02,SSW,203,15.5,23.9,67,0.00,,,0.00,WUHU216HW,2013-03-14 23:05:00,
2013-03-14 16:10:00,50.8,40.8,30.03,South,180,13.6,23.9,68,0.00,,,0.00,WUHU216HW,2013-03-14 23:10:00,
2013-03-14 16:15:00,50.9,40.8,30.03,ESE,113,15.9,25.9,68,0.00,,,0.00,WUHU216HW,2013-03-14 23:15:00,
2013-03-14 16:20:00,50.9,41.2,30.03,SSE,158,9.1,25.9,69,0.00,,,0.00,WUHU216HW,2013-03-14 23:20:00,
2013-03-14 16:25:00,50.9,41.9,30.04,SSW,203,7.5,14.3,71,0.00,,,0.00,WUHU216HW,2013-03-14 23:25:00,
2013-03-14 16:30:00,50.6,41.6,30.03,SSE,158,11.9,12.5,71,0.00,,,0.00,WUHU216HW,2013-03-14 23:30:00,
2013-03-14 16:35:00,50.4,41.8,30.04,South,188,4.4,12.5,72,0.00,,,0.00,WUHU216HW,2013-03-14 23:35:00,
2013-03-14 16:40:00,50.6,41.7,30.04,SSW,203,17.2,18.1,71,0.00,,,0.00,WUHU216HW,2013-03-14 23:40:00,
2013-03-14 16:45:00,50.6,41.7,30.04,SSW,203,14.4,18.1,71,0.00,,,0.00,WUHU216HW,2013-03-14 23:45:00,
2013-03-14 16:50:00,50.3,41.3,30.04,SE,135,10.8,15.2,71,0.00,,,0.00,WUHU216HW,2013-03-14 23:50:00,
2013-03-14 16:55:00,49.8,41.2,30.03,South,180,12.7,17.4,72,0.00,,,0.00,WUHU216HW,2013-03-14 23:55:00,
2013-03-14 17:00:00,49.8,41.2,30.03,SE,135,4.8,17.4,72,0.00,,,0.00,WUHU216HW,2013-03-15 00:00:00,
2013-03-14 17:05:00,49.6,41.4,30.04,South,180,12.7,15.4,73,0.00,,,0.00,WUHU216HW,2013-03-15 00:05:00,
2013-03-14 17:10:00,49.3,41.7,30.05,SSE,158,13.1,15.4,75,0.00,,,0.00,WUHU216HW,2013-03-15 00:10:00,
2013-03-14 17:15:00,49.0,41.5,30.05,SSE,168,9.2,23.7,75,0.00,,,0.00,WUHU216HW,2013-03-15 00:15:00,
2013-03-14 17:20:00,49.0,41.8,30.05,SE,135,14.4,23.7,76,0.00,,,0.00,WUHU216HW,2013-03-15 00:20:00,
2013-03-14 17:25:00,49.0,41.9,30.05,South,180,9.9,15.2,76,0.00,,,0.00,WUHU216HW,2013-03-15 00:25:00,
2013-03-14 17:30:00,48.8,41.7,30.05,SSE,155,14.2,16.7,76,0.00,,,0.00,WUHU216HW,2013-03-15 00:30:00,
2013-03-14 17:35:00,49.1,42.2,30.05,South,170,7.4,16.7,77,0.00,,,0.00,WUHU216HW,2013-03-15 00:35:00,
2013-03-14 17:40:00,49.1,42.2,30.05,South,173,10.3,13.8,77,0.00,,,0.00,WUHU216HW,2013-03-15 00:40:00,
2013-03-14 17:45:00,49.4,42.5,30.05,ESE,113,13.8,14.5,77,0.00,,,0.00,WUHU216HW,2013-03-15 00:45:00,
2013-03-14 17:50:00,49.4,42.6,30.06,South,180,16.7,19.0,77,0.00,,,0.00,WUHU216HW,2013-03-15 00:50:00,
2013-03-14 17:55:00,49.3,42.8,30.06,SSW,203,17.6,19.0,78,0.00,,,0.00,WUHU216HW,2013-03-15 00:55:00,
2013-03-14 18:00:00,49.2,43.0,30.06,SSE,158,6.6,18.5,79,0.00,,,0.00,WUHU216HW,2013-03-15 01:00:00,
2013-03-14 18:05:00,49.0,42.8,30.06,SSW,213,6.7,10.0,79,0.00,,,0.00,WUHU216HW,2013-03-15 01:05:00,
2013-03-14 18:10:00,48.8,42.6,30.06,South,180,12.9,14.9,79,0.00,,,0.00,WUHU216HW,2013-03-15 01:10:00,
2013-03-14 18:15:00,48.7,42.8,30.06,SE,145,9.5,14.9,80,0.00,,,0.00,WUHU216HW,2013-03-15 01:15:00,
2013-03-14 18:20:00,48.6,43.0,30.07,South,180,14.0,14.7,81,0.00,,,0.00,WUHU216HW,2013-03-15 01:20:00,
2013-03-14 18:25:00,48.4,43.2,30.07,South,180,14.0,14.7,82,0.00,,,0.00,WUHU216HW,2013-03-15 01:25:00,
2013-03-14 18:30:00,48.2,43.0,30.07,SSE,158,10.0,14.7,82,0.00,,,0.00,WUHU216HW,2013-03-15 01:30:00,
2013-03-14 18:35:00,48.3,43.3,30.07,South,180,8.8,12.9,83,0.00,,,0.00,WUHU216HW,2013-03-15 01:35:00,
2013-03-14 18:40:00,48.3,43.4,30.07,SSE,158,13.8,14.7,83,0.00,,,0.00,WUHU216HW,2013-03-15 01:40:00,
2013-03-14 18:45:00,47.9,43.3,30.06,South,180,15.7,16.5,84,0.00,,,0.00,WUHU216HW,2013-03-15 01:45:00,
2013-03-14 18:50:00,47.8,43.5,30.06,South,180,15.7,16.5,85,0.00,,,0.00,WUHU216HW,2013-03-15 01:50:00,
2013-03-14 18:55:00,47.7,43.7,30.06,South,183,4.5,16.5,86,0.00,,,0.00,WUHU216HW,2013-03-15 01:55:00,
2013-03-14 19:00:00,47.7,43.7,30.06,South,180,9.6,13.4,86,0.00,,,0.00,WUHU216HW,2013-03-15 02:00:00,
2013-03-14 19:05:00,47.5,43.8,30.06,SSE,168,5.2,13.4,87,0.00,,,0.00,WUHU216HW,2013-03-15 02:05:00,
2013-03-14 19:10:00,47.6,43.9,30.06,South,180,8.8,11.8,87,0.00,,,0.00,WUHU216HW,2013-03-15 02:10:00,
2013-03-14 19:15:00,47.4,43.7,30.07,SSE,158,11.7,12.3,87,0.00,,,0.00,WUHU216HW,2013-03-15 02:15:00,
2013-03-14 19:20:00,47.2,43.5,30.07,SE,127,3.5,12.3,87,0.00,,,0.00,WUHU216HW,2013-03-15 02:20:00,
2013-03-14 19:25:00,46.9,43.5,30.07,South,180,9.5,12.7,88,0.00,,,0.00,WUHU216HW,2013-03-15 02:25:00,
2013-03-14 19:30:00,47.0,43.6,30.07,SSE,158,5.3,12.7,88,0.00,,,0.00,WUHU216HW,2013-03-15 02:30:00,
2013-03-14 19:35:00,47.0,43.9,30.07,SE,135,8.3,12.5,89,0.00,,,0.00,WUHU216HW,2013-03-15 02:35:00,
2013-03-14 19:40:00,46.8,43.7,30.07,SSW,192,4.1,9.6,89,0.00,,,0.00,WUHU216HW,2013-03-15 02:40:00,
2013-03-14 19:46:00,46.8,43.7,30.07,South,187,4.3,8.7,89,0.00,,,0.00,WUHU216HW,2013-03-15 02:46:00,
2013-03-14 19:51:00,46.5,43.6,30.07,South,180,5.0,7.1,90,0.00,,,0.00,WUHU216HW,2013-03-15 02:51:00,
2013-03-14 19:56:00,46.5,43.6,30.07,SE,135,5.5,11.8,90,0.00,,,0.00,WUHU216HW,2013-03-15 02:56:00,
2013-03-14 19:59:00,45.8,44.1,30.08,South,181,6.9,12.0,94,0.00,,,0.00,WUHU216HW,2013-03-15 02:59:00,
2013-03-14 20:00:00,45.8,44.1,30.08,SSE,158,6.6,12.0,94,0.00,,,0.00,WUHU216HW,2013-03-15 03:00:00,
2013-03-14 20:01:00,46.5,43.6,30.07,SW,225,5.2,11.8,90,0.00,,,0.00,WUHU216HW,2013-03-15 03:01:00,
2013-03-14 20:02:00,45.8,44.1,30.08,SSE,168,6.5,12.0,94,0.00,,,0.00,WUHU216HW,2013-03-15 03:02:00,
2013-03-14 20:03:00,45.6,43.9,30.08,South,180,7.2,12.0,94,0.00,,,0.00,WUHU216HW,2013-03-15 03:03:00,
2013-03-14 20:04:00,45.6,43.9,30.08,SSW,199,6.4,12.0,94,0.00,,,0.00,WUHU216HW,2013-03-15 03:04:00,
2013-03-14 20:05:00,45.6,43.9,30.08,South,185,5.1,12.0,94,0.00,,,0.00,WUHU216HW,2013-03-15 03:05:00,
2013-03-14 20:06:00,46.4,43.5,30.08,SSW,203,8.1,10.7,90,0.00,,,0.00,WUHU216HW,2013-03-15 03:06:00,
2013-03-14 20:11:00,46.4,43.8,30.07,South,180,10.4,10.9,91,0.00,,,0.00,WUHU216HW,2013-03-15 03:11:00,
2013-03-14 20:16:00,46.2,43.6,30.07,South,180,7.4,10.9,91,0.00,,,0.00,WUHU216HW,2013-03-15 03:16:00,
2013-03-14 20:21:00,46.2,43.6,30.07,South,182,6.7,13.4,91,0.00,,,0.00,WUHU216HW,2013-03-15 03:21:00,
2013-03-14 20:26:00,46.0,43.7,30.08,SE,135,8.6,13.4,92,0.00,,,0.00,WUHU216HW,2013-03-15 03:26:00,
2013-03-14 20:31:00,46.0,43.7,30.08,South,174,3.9,9.3,92,0.00,,,0.00,WUHU216HW,2013-03-15 03:31:00,
2013-03-14 20:36:00,46.0,44.0,30.08,SSW,201,1.9,9.3,93,0.00,,,0.00,WUHU216HW,2013-03-15 03:36:00,
2013-03-14 20:41:00,45.8,43.8,30.08,SSE,158,1.2,4.4,93,0.00,,,0.00,WUHU216HW,2013-03-15 03:41:00,
2013-03-14 20:46:00,45.8,43.8,30.08,SSE,163,5.2,6.0,93,0.00,,,0.00,WUHU216HW,2013-03-15 03:46:00,
2013-03-14 20:51:00,45.8,43.8,30.08,South,189,4.6,9.1,93,0.00,,,0.00,WUHU216HW,2013-03-15 03:51:00,
2013-03-14 20:56:00,45.8,43.8,30.08,SE,135,10.5,11.1,93,0.00,,,0.00,WUHU216HW,2013-03-15 03:56:00,
2013-03-14 21:04:00,45.6,43.9,30.08,South,180,7.2,12.0,94,0.00,,,0.00,WUHU216HW,2013-03-15 04:04:00,
2013-03-14 21:09:00,45.6,44.2,30.08,SSE,158,7.8,10.5,95,0.00,,,0.00,WUHU216HW,2013-03-15 04:09:00,
2013-03-14 21:14:00,45.6,44.2,30.08,SSE,167,8.3,10.5,95,0.00,,,0.00,WUHU216HW,2013-03-15 04:14:00,
2013-03-14 21:19:00,45.5,44.1,30.09,SSE,158,4.8,9.8,95,0.00,,,0.00,WUHU216HW,2013-03-15 04:19:00,
2013-03-14 21:24:00,45.5,44.1,30.08,SSE,158,6.6,6.9,95,0.00,,,0.00,WUHU216HW,2013-03-15 04:24:00,
2013-03-14 21:29:00,45.3,44.2,30.08,East,90,0.0,6.9,96,0.00,,,0.00,WUHU216HW,2013-03-15 04:29:00,
2013-03-14 21:34:00,45.3,44.2,30.08,SSE,158,5.0,5.3,96,0.00,,,0.00,WUHU216HW,2013-03-15 04:34:00,
2013-03-14 21:39:00,45.3,44.2,30.09,SE,138,4.3,7.8,96,0.00,,,0.00,WUHU216HW,2013-03-15 04:39:00,
2013-03-14 21:44:00,45.3,44.4,30.09,SE,135,0.0,7.8,97,0.00,,,0.00,WUHU216HW,2013-03-15 04:44:00,
2013-03-14 21:49:00,45.3,44.4,30.09,South,180,0.0,2.4,97,0.00,,,0.00,WUHU216HW,2013-03-15 04:49:00,
2013-03-14 21:54:00,45.3,44.4,30.10,SW,225,0.4,0.4,97,0.00,,,0.00,WUHU216HW,2013-03-15 04:54:00,
2013-03-14 21:59:00,45.3,44.4,30.10,SSE,158,4.2,4.4,97,0.00,,,0.00,WUHU216HW,2013-03-15 04:59:00,
2013-03-14 22:04:00,45.3,44.4,30.10,South,180,0.0,4.4,97,0.00,,,0.00,WUHU216HW,2013-03-15 05:04:00,
2013-03-14 22:09:00,45.3,44.4,30.10,SE,135,0.0,1.7,97,0.00,,,0.00,WUHU216HW,2013-03-15 05:09:00,
2013-03-14 22:14:00,45.3,44.4,30.10,South,186,5.4,8.2,97,0.00,,,0.00,WUHU216HW,2013-03-15 05:14:00,
2013-03-14 22:19:00,45.3,44.4,30.10,SSE,158,0.0,8.2,97,0.00,,,0.00,WUHU216HW,2013-03-15 05:19:00,
2013-03-14 22:24:00,45.3,44.4,30.11,South,172,4.8,6.4,97,0.00,,,0.00,WUHU216HW,2013-03-15 05:24:00,
2013-03-14 22:29:00,45.3,44.4,30.11,South,180,5.9,6.4,97,0.00,,,0.00,WUHU216HW,2013-03-15 05:29:00,
2013-03-14 22:34:00,45.3,44.4,30.11,SSW,203,1.9,10.7,97,0.00,,,0.00,WUHU216HW,2013-03-15 05:34:00,
2013-03-14 22:39:00,45.3,44.4,30.11,SSE,158,5.7,10.7,97,0.00,,,0.00,WUHU216HW,2013-03-15 05:39:00,
2013-03-14 22:44:00,45.3,44.4,30.10,SSE,158,5.5,11.8,97,0.00,,,0.00,WUHU216HW,2013-03-15 05:44:00,
2013-03-14 22:49:00,45.3,44.4,30.10,SSE,158,5.0,11.8,97,0.00,,,0.00,WUHU216HW,2013-03-15 05:49:00,
2013-03-14 22:54:00,45.3,44.4,30.11,SSE,158,6.7,7.8,97,0.00,,,0.00,WUHU216HW,2013-03-15 05:54:00,
2013-03-14 22:59:00,45.3,44.4,30.11,SSE,158,7.6,8.0,97,0.00,,,0.00,WUHU216HW,2013-03-15 05:59:00,
2013-03-14 23:04:00,45.3,44.4,30.12,SSW,203,10.5,11.1,97,0.00,,,0.00,WUHU216HW,2013-03-15 06:04:00,
2013-03-14 23:09:00,45.3,44.4,30.11,South,180,0.0,11.1,97,0.00,,,0.00,WUHU216HW,2013-03-15 06:09:00,
2013-03-14 23:14:00,45.3,44.4,30.11,South,180,2.5,8.9,97,0.00,,,0.00,WUHU216HW,2013-03-15 06:14:00,
2013-03-14 23:19:00,45.3,44.4,30.12,South,180,3.3,4.0,97,0.00,,,0.00,WUHU216HW,2013-03-15 06:19:00,
2013-03-14 23:24:00,45.3,44.7,30.12,SSE,158,0.8,7.3,98,0.00,,,0.00,WUHU216HW,2013-03-15 06:24:00,
2013-03-14 23:29:00,45.3,44.7,30.12,SSE,158,0.0,7.3,98,0.00,,,0.00,WUHU216HW,2013-03-15 06:29:00,
2013-03-14 23:34:00,45.3,44.7,30.12,SE,135,0.0,4.9,98,0.00,,,0.00,WUHU216HW,2013-03-15 06:34:00,
2013-03-14 23:39:00,45.3,44.7,30.12,SSE,158,0.0,1.7,98,0.00,,,0.00,WUHU216HW,2013-03-15 06:39:00,
2013-03-14 23:44:00,45.3,44.7,30.12,South,180,0.0,3.5,98,0.00,,,0.00,WUHU216HW,2013-03-15 06:44:00,
2013-03-14 23:49:00,45.3,44.7,30.12,SE,135,3.8,4.4,98,0.00,,,0.00,WUHU216HW,2013-03-15 06:49:00,
2013-03-14 23:54:00,45.5,44.9,30.12,South,180,3.1,4.4,98,0.00,,,0.00,WUHU216HW,2013-03-15 06:54:00,
2013-03-14 23:59:00,45.6,45.0,30.12,South,180,5.5,5.8,98,0.00,,,0.00,WUHU216HW,2013-03-15 06:59:00,